HB9KBJ-4 Weather Reports


Display with metric or nautical units.
time (UTC)temp
F
wind
direction
speed
MPH
gust
MPH
rain 1hr
in
rain 24hr
in
rain mn
in
humidity
%
barometer
mb
20260505122117 65 21 2.0 7.0 0.00 0.00 0.02 54
20260505120616 65 10 1.0 5.0 0.00 0.00 0.02 53
20260505112113 66 87 2.0 9.0 0.00 0.00 0.02 54
20260505111613 65 318 1.0 4.0 0.00 0.00 0.02 57
20260505110613 63 62 1.0 4.0 0.00 0.00 0.02 60
20260505101610 58 80 2.0 8.0 0.00 0.00 0.02 67
20260505101109 58 58 2.0 6.0 0.00 0.00 0.02 69
20260505100609 57 68 2.0 5.0 0.00 0.00 0.02 69
20260505095108 57 53 1.0 4.0 0.00 0.00 0.02 71
20260505093607 55 312 1.0 4.0 0.00 0.00 0.02 77
20260505093107 54 314 1.0 4.0 0.00 0.00 0.02 79
20260505092607 54 301 0.0 3.0 0.00 0.00 0.02 79
20260505092106 53 34 0.0 1.0 0.00 0.00 0.02 79
20260505091606 53 90 1.0 4.0 0.00 0.00 0.02 80
20260505091106 53 0 0.0 0.0 0.00 0.00 0.02 79
20260505090606 53 0 0.0 0.0 0.00 0.00 0.02 79
20260505090105 53 60 0.0 2.0 0.00 0.00 0.02 81
20260505085105 52 318 0.0 1.0 0.00 0.00 0.02 81
20260505084604 51 31 0.0 1.0 0.00 0.00 0.02 80
20260505084104 52 0 0.0 0.0 0.00 0.00 0.02 81
20260505083604 51 0 0.0 0.0 0.00 0.00 0.02 81
20260505083104 51 0 0.0 0.0 0.00 0.00 0.02 82
20260505082604 50 0 0.0 0.0 0.00 0.00 0.02 82
20260505082103 50 0 0.0 0.0 0.00 0.00 0.02 83
20260505080602 49 0 0.0 0.0 0.00 0.00 0.02 85
20260505075602 49 91 0.0 2.0 0.00 0.00 0.02 86
20260505075101 49 0 0.0 0.0 0.00 0.00 0.02 86
20260505074101 49 0 0.0 0.0 0.00 0.00 0.02 85
20260505073601 48 0 0.0 0.0 0.00 0.00 0.02 85
20260505073100 48 0 0.0 0.0 0.00 0.00 0.02 85
20260505072600 48 0 0.0 0.0 0.00 0.00 0.02 85
20260505072100 48 120 0.0 2.0 0.00 0.00 0.02 85
20260505071600 48 0 0.0 0.0 0.00 0.00 0.02 84
20260505071059 48 0 0.0 0.0 0.00 0.00 0.01 85
20260505070559 48 0 0.0 0.0 0.00 0.00 0.01 84
20260505070059 48 0 0.0 0.0 0.00 0.00 0.01 84
20260505065558 48 0 0.0 0.0 0.00 0.00 0.01 84
20260505064558 48 0 0.0 0.0 0.00 0.00 0.01 83
20260505064058 48 0 0.0 0.0 0.00 0.00 0.00 83
20260505063057 48 0 0.0 0.0 0.00 0.00 0.00 84
20260505062557 47 0 0.0 0.0 0.00 0.00 0.00 83
20260505062056 47 0 0.0 0.0 0.00 0.00 0.00 83
20260505061556 47 0 0.0 0.0 0.00 0.00 0.00 83
20260505061056 47 0 0.0 0.0 0.00 0.00 0.00 84
20260505060555 47 0 0.0 0.0 0.00 0.00 0.00 83
20260505055555 47 0 0.0 0.0 0.00 0.00 0.00 83
20260505053554 47 0 0.0 0.0 0.00 0.00 0.00 82
20260505053054 46 0 0.0 0.0 0.00 0.00 0.00 83
20260505052553 46 0 0.0 0.0 0.00 0.00 0.00 82
20260505052053 46 0 0.0 0.0 0.00 0.00 0.00 82
20260505051553 46 0 0.0 0.0 0.00 0.00 0.00 82
20260505051052 47 0 0.0 0.0 0.00 0.00 0.00 82
20260505050552 46 0 0.0 0.0 0.00 0.00 0.00 82
20260505041049 46 0 0.0 0.0 0.00 0.00 0.00 81
20260505040549 46 0 0.0 0.0 0.00 0.00 0.00 81
20260505040048 46 0 0.0 0.0 0.00 0.00 0.00 81
20260505035048 46 0 0.0 0.0 0.00 0.00 0.00 80
20260505034548 46 0 0.0 0.0 0.00 0.00 0.00 80
20260505034047 46 0 0.0 0.0 0.00 0.00 0.00 80
20260505033547 46 0 0.0 0.0 0.00 0.00 0.00 80
20260505032547 46 0 0.0 0.0 0.00 0.00 0.00 80
20260505032046 46 0 0.0 0.0 0.00 0.00 0.00 79
20260505031546 46 0 0.0 0.0 0.00 0.00 0.00 80
20260505030545 46 0 0.0 0.0 0.00 0.00 0.00 80
20260505030045 46 0 0.0 0.0 0.00 0.00 0.00 80
20260505025545 46 0 0.0 0.0 0.00 0.00 0.00 80
20260505025045 47 0 0.0 0.0 0.00 0.00 0.00 80
20260505024544 47 0 0.0 0.0 0.00 0.00 0.00 80
20260505023544 47 0 0.0 0.0 0.00 0.00 0.00 80
20260505023043 46 0 0.0 0.0 0.00 0.00 0.00 80
20260505022543 47 0 0.0 0.0 0.00 0.00 0.00 80
20260505022043 47 0 0.0 0.0 0.00 0.00 0.00 80
20260505021543 47 0 0.0 0.0 0.00 0.00 0.00 80
20260505021042 47 0 0.0 0.0 0.00 0.00 0.00 80
20260505020542 47 0 0.0 0.0 0.00 0.00 0.00 80
20260505020042 47 0 0.0 0.0 0.00 0.00 0.00 80
20260505015541 47 0 0.0 0.0 0.00 0.00 0.00 80
20260505015041 47 0 0.0 0.0 0.00 0.00 0.00 81
20260505014541 47 0 0.0 0.0 0.00 0.00 0.00 81
20260505014041 47 0 0.0 0.0 0.00 0.00 0.00 81
20260505013540 47 0 0.0 0.0 0.00 0.00 0.00 80
20260505012540 48 0 0.0 0.0 0.00 0.00 0.00 82
20260505011539 48 0 0.0 0.0 0.00 0.00 0.00 82
20260505011039 48 0 0.0 0.0 0.00 0.00 0.00 80
20260505010539 48 0 0.0 0.0 0.00 0.00 0.00 80
20260505010038 48 0 0.0 0.0 0.00 0.00 0.00 81
20260505005538 48 0 0.0 0.0 0.00 0.00 0.00 81
20260505005038 48 0 0.0 0.0 0.00 0.00 0.00 81
20260505004537 48 0 0.0 0.0 0.00 0.00 0.00 81
20260505004037 48 0 0.0 0.0 0.00 0.00 0.00 81
20260505003537 48 0 0.0 0.0 0.00 0.00 0.00 81
20260505002536 48 0 0.0 0.0 0.00 0.00 0.00 80
20260505001035 48 0 0.0 0.0 0.00 0.00 0.00 80
20260505000535 48 0 0.0 0.0 0.00 0.00 0.00 81
20260505000035 48 0 0.0 0.0 0.00 0.00 0.00 79
20260504235534 48 0 0.0 0.0 0.00 0.00 0.00 79
20260504235034 48 0 0.0 0.0 0.00 0.00 0.00 78
20260504234034 48 0 0.0 0.0 0.00 0.00 0.00 77
20260504233033 48 0 0.0 0.0 0.00 0.00 0.00 77
20260504232533 48 0 0.0 0.0 0.00 0.00 0.00 78
20260504232032 48 0 0.0 0.0 0.00 0.00 0.00 77
20260504231032 49 0 0.0 0.0 0.00 0.00 0.00 77
20260504230532 49 0 0.0 0.0 0.00 0.00 0.00 77
20260504230031 49 0 0.0 0.0 0.00 0.00 0.00 77
20260504225531 49 0 0.0 0.0 0.00 0.00 0.00 78
20260504225031 49 0 0.0 0.0 0.00 0.00 0.00 78
20260504224530 49 0 0.0 0.0 0.00 0.00 0.00 79
20260504224030 49 0 0.0 0.0 0.00 0.00 0.00 79
20260504223530 49 0 0.0 0.0 0.00 0.00 0.00 79
20260504223030 49 0 0.0 0.0 0.00 0.00 0.00 79
20260504222529 49 0 0.0 0.0 0.00 0.00 0.00 79
20260504222029 49 0 0.0 0.0 0.00 0.00 0.00 78
20260504221529 49 0 0.0 0.0 0.00 0.00 0.00 78
20260504221028 49 0 0.0 0.0 0.00 0.00 0.00 78
20260504220028 50 0 0.0 0.0 0.00 0.00 0.00 78
20260504215528 50 0 0.0 0.0 0.00 0.00 0.00 78
20260504215027 49 0 0.0 0.0 0.00 0.00 0.00 78
20260504214527 49 0 0.0 0.0 0.00 0.00 0.00 78
20260504214027 50 0 0.0 0.0 0.00 0.00 0.00 78
20260504213526 49 0 0.0 0.0 0.00 0.00 0.00 78
20260504213026 50 0 0.0 0.0 0.00 0.00 0.00 77
20260504212526 50 0 0.0 0.0 0.00 0.00 0.00 78
20260504212026 50 0 0.0 0.0 0.00 0.00 0.00 78
20260504211525 50 0 0.0 0.0 0.00 0.00 0.00 78
20260504211025 51 0 0.0 0.0 0.00 0.00 0.00 79
20260504210525 51 0 0.0 0.0 0.00 0.00 0.00 79
20260504205524 51 0 0.0 0.0 0.00 0.00 0.00 79
20260504205024 51 0 0.0 0.0 0.00 0.00 0.00 79
20260504203523 52 0 0.0 0.0 0.00 0.00 0.00 80
20260504203023 52 0 0.0 0.0 0.00 0.00 0.00 79
20260504202522 52 0 0.0 0.0 0.00 0.00 0.00 79
20260504202022 52 0 0.0 0.0 0.00 0.00 0.00 80
20260504201522 52 0 0.0 0.0 0.00 0.00 0.00 80
20260504201022 52 0 0.0 0.0 0.00 0.00 0.00 79
20260504200521 52 0 0.0 0.0 0.00 0.00 0.00 79
20260504200021 52 86 0.0 2.0 0.00 0.00 0.00 80
20260504195521 52 325 0.0 1.0 0.00 0.00 0.00 79
20260504195020 52 326 0.0 1.0 0.00 0.00 0.00 79
20260504194020 52 340 0.0 2.0 0.00 0.00 0.00 78
20260504193520 53 4 0.0 1.0 0.00 0.00 0.00 78
20260504193019 52 46 1.0 3.0 0.00 0.00 0.00 78
20260504192519 52 73 0.0 2.0 0.00 0.00 0.00 79
20260504192019 53 0 0.0 0.0 0.00 0.00 0.00 77
20260504191519 53 68 1.0 2.0 0.00 0.00 0.00 78
20260504190518 53 83 0.0 2.0 0.00 0.00 0.00 77
20260504190018 53 89 0.0 2.0 0.00 0.00 0.00 77
20260504185517 53 315 0.0 2.0 0.00 0.00 0.00 76
20260504184517 53 0 0.0 0.0 0.00 0.00 0.00 75
20260504184017 53 0 0.0 0.0 0.00 0.00 0.00 75
20260504183516 54 0 0.0 0.0 0.00 0.00 0.00 75
20260504182516 54 0 0.0 0.0 0.00 0.00 0.00 74
20260504181015 54 0 0.0 0.0 0.00 0.00 0.00 73
20260504180515 54 0 0.0 0.0 0.00 0.00 0.00 73
20260504180014 55 0 0.0 0.0 0.00 0.00 0.00 73
20260504175514 55 24 0.0 1.0 0.00 0.00 0.00 72
20260504175014 55 24 0.0 2.0 0.00 0.00 0.00 73
20260504174513 55 25 0.0 2.0 0.00 0.00 0.00 73
20260504174013 55 38 0.0 2.0 0.00 0.00 0.00 73
20260504173513 55 35 1.0 3.0 0.00 0.00 0.00 73
20260504173013 55 35 1.0 5.0 0.00 0.00 0.00 73
20260504172512 55 30 0.0 3.0 0.00 0.00 0.00 73
20260504172012 56 302 0.0 1.0 0.00 0.00 0.00 72
20260504171512 56 314 0.0 2.0 0.00 0.00 0.00 72
20260504171011 56 45 1.0 2.0 0.00 0.00 0.00 71
20260504170511 56 21 1.0 5.0 0.00 0.00 0.00 71
20260504151004 60 270 1.0 4.0 0.00 0.00 0.00 62
20260504141001 62 30 1.0 5.0 0.00 0.00 0.00 55